contact:dominique.lefevre@mio.osupytheas.fr, maurice.libes@osupytheas.fr, didier.mallarino@osupytheas.fr
Project:EMSO http://www.emso-fr.org/EMSO-France
Depth: 2436.0 m
Title:EMSO Ligure Ouest : Data MII capteur CSTAR
DateTime,Latitude,Longitude,Instrument_Serial,Reference_Counts,Signal_Counts,Corrected_Signal_raw_counts,Calculated_Beam_c_inverse_meters,Internal_thermistor_counts
DateTime,Latitude,Longitude,Instrument_Serial,Reference_Counts,Signal_Counts,Corrected_Signal_raw_counts,Calculated_Beam_c_inverse_meters,Internal_thermistor_counts
2023-05-19T00:00:23,42.805,6.029,CST-1368DR,4294,4686,11586,01.194,552
2023-05-19T00:03:24,42.805,6.029,CST-1368DR,4294,4682,11575,01.198,552
2023-05-19T00:06:26,42.805,6.029,CST-1368DR,4294,4677,11562,01.202,552
2023-05-19T00:09:27,42.805,6.029,CST-1368DR,4294,4680,11570,01.200,552
2023-05-19T00:12:29,42.805,6.029,CST-1368DR,4294,4682,11576,01.197,552
2023-05-19T00:15:30,42.805,6.029,CST-1368DR,4294,4689,11593,01.192,552
2023-05-19T00:18:32,42.805,6.029,CST-1368DR,4294,4675,11557,01.204,552
2023-05-19T00:21:34,42.805,6.029,CST-1368DR,4294,4673,11554,01.205,552
2023-05-19T00:24:35,42.805,6.029,CST-1368DR,4294,4680,11569,01.200,552
2023-05-19T00:27:37,42.805,6.029,CST-1368DR,4294,4675,11559,01.203,552
2023-05-19T00:30:38,42.805,6.029,CST-1368DR,4294,4677,11562,01.202,552
2023-05-19T00:33:40,42.805,6.029,CST-1368DR,4294,4682,11575,01.198,552
2023-05-19T00:36:42,42.805,6.029,CST-1368DR,4294,4676,11561,01.203,552
2023-05-19T00:39:43,42.805,6.029,CST-1368DR,4294,4680,11570,01.200,552
2023-05-19T00:42:45,42.805,6.029,CST-1368DR,4294,4682,11576,01.197,552
2023-05-19T00:45:46,42.805,6.029,CST-1368DR,4294,4680,11571,01.199,552
2023-05-19T00:48:48,42.805,6.029,CST-1368DR,4294,4693,11601,01.189,552
2023-05-19T00:51:49,42.805,6.029,CST-1368DR,4294,4686,11584,01.195,552
2023-05-19T00:54:51,42.805,6.029,CST-1368DR,4294,4674,11556,01.204,552
2023-05-19T00:57:53,42.805,6.029,CST-1368DR,4294,4684,11579,01.196,552
2023-05-19T01:00:54,42.805,6.029,CST-1368DR,4294,4680,11570,01.200,552
2023-05-19T01:03:56,42.805,6.029,CST-1368DR,4294,4682,11574,01.198,552
2023-05-19T01:06:57,42.805,6.029,CST-1368DR,4294,4682,11574,01.198,551
2023-05-19T01:09:59,42.805,6.029,CST-1368DR,4294,4681,11572,01.199,552
2023-05-19T01:13:00,42.805,6.029,CST-1368DR,4294,4682,11575,01.198,552
2023-05-19T01:16:02,42.805,6.029,CST-1368DR,4294,4678,11566,01.201,552
2023-05-19T01:19:04,42.805,6.029,CST-1368DR,4294,4683,11577,01.197,552
2023-05-19T01:22:05,42.805,6.029,CST-1368DR,4294,4673,11554,01.205,552
2023-05-19T01:25:07,42.805,6.029,CST-1368DR,4294,4682,11576,01.197,552
2023-05-19T01:28:08,42.805,6.029,CST-1368DR,4294,4680,11570,01.200,552
2023-05-19T01:31:10,42.805,6.029,CST-1368DR,4294,4681,11573,01.198,552
2023-05-19T01:34:12,42.805,6.029,CST-1368DR,4294,4692,11600,01.189,552
2023-05-19T01:37:13,42.805,6.029,CST-1368DR,4294,4696,11609,01.186,552
2023-05-19T01:40:15,42.805,6.029,CST-1368DR,4294,4679,11567,01.201,552
2023-05-19T01:43:16,42.805,6.029,CST-1368DR,4294,4680,11569,01.200,552
2023-05-19T01:46:18,42.805,6.029,CST-1368DR,4294,4680,11570,01.200,552
2023-05-19T01:49:19,42.805,6.029,CST-1368DR,4294,4681,11572,01.199,552
2023-05-19T01:52:21,42.805,6.029,CST-1368DR,4294,4679,11567,01.201,552
2023-05-19T01:55:23,42.805,6.029,CST-1368DR,4294,4684,11579,01.196,552
2023-05-19T01:58:24,42.805,6.029,CST-1368DR,4294,4677,11562,01.202,552
2023-05-19T02:01:26,42.805,6.029,CST-1368DR,4294,4680,11570,01.200,552
2023-05-19T02:04:27,42.805,6.029,CST-1368DR,4294,4678,11564,01.202,552
2023-05-19T02:07:29,42.805,6.029,CST-1368DR,4294,4680,11570,01.200,552
2023-05-19T02:10:30,42.805,6.029,CST-1368DR,4294,4683,11577,01.197,552
2023-05-19T02:13:32,42.805,6.029,CST-1368DR,4294,4679,11569,01.200,552
2023-05-19T02:16:34,42.805,6.029,CST-1368DR,4294,4675,11558,01.204,552
2023-05-19T02:19:35,42.805,6.029,CST-1368DR,4294,4684,11581,01.196,552
2023-05-19T02:22:37,42.805,6.029,CST-1368DR,4294,4679,11569,01.200,552
2023-05-19T02:25:38,42.805,6.029,CST-1368DR,4294,4676,11561,01.203,552
2023-05-19T02:28:40,42.805,6.029,CST-1368DR,4294,4677,11562,01.202,552
2023-05-19T02:31:42,42.805,6.029,CST-1368DR,4294,4674,11556,01.204,552
2023-05-19T02:34:43,42.805,6.029,CST-1368DR,4294,4681,11574,01.198,552
2023-05-19T02:37:45,42.805,6.029,CST-1368DR,4294,4685,11582,01.195,552
2023-05-19T02:40:46,42.805,6.029,CST-1368DR,4294,4683,11578,01.197,552
2023-05-19T02:43:48,42.805,6.029,CST-1368DR,4294,4680,11570,01.200,552
2023-05-19T02:46:49,42.805,6.029,CST-1368DR,4294,4682,11574,01.198,552
2023-05-19T02:49:51,42.805,6.029,CST-1368DR,4294,4687,11587,01.194,552
2023-05-19T02:52:53,42.805,6.029,CST-1368DR,4294,4680,11571,01.199,552
2023-05-19T02:55:54,42.805,6.029,CST-1368DR,4294,4679,11568,01.200,552
2023-05-19T02:58:56,42.805,6.029,CST-1368DR,4294,4679,11568,01.200,552
2023-05-19T03:01:57,42.805,6.029,CST-1368DR,4294,4682,11575,01.198,552
2023-05-19T03:04:59,42.805,6.029,CST-1368DR,4294,4689,11593,01.192,552
2023-05-19T03:08:00,42.805,6.029,CST-1368DR,4294,4678,11564,01.202,552
2023-05-19T03:11:02,42.805,6.029,CST-1368DR,4294,4686,11586,01.194,552
2023-05-19T03:14:04,42.805,6.029,CST-1368DR,4294,4674,11556,01.204,552
2023-05-19T03:17:05,42.805,6.029,CST-1368DR,4294,4678,11566,01.201,552
2023-05-19T03:20:07,42.805,6.029,CST-1368DR,4294,4680,11570,01.200,552
2023-05-19T03:23:08,42.805,6.029,CST-1368DR,4294,4679,11567,01.201,552
2023-05-19T03:26:10,42.805,6.029,CST-1368DR,4294,4677,11562,01.202,552
2023-05-19T03:29:12,42.805,6.029,CST-1368DR,4294,4678,11566,01.201,552
2023-05-19T03:32:13,42.805,6.029,CST-1368DR,4294,4677,11562,01.202,552
2023-05-19T03:35:15,42.805,6.029,CST-1368DR,4294,4681,11574,01.198,552
2023-05-19T03:38:16,42.805,6.029,CST-1368DR,4294,4683,11577,01.197,551
2023-05-19T03:41:18,42.805,6.029,CST-1368DR,4294,4681,11572,01.199,552
2023-05-19T03:44:19,42.805,6.029,CST-1368DR,4294,4682,11575,01.198,552
2023-05-19T03:47:21,42.805,6.029,CST-1368DR,4294,4680,11570,01.200,552
2023-05-19T03:50:23,42.805,6.029,CST-1368DR,4294,4684,11580,01.196,552
2023-05-19T03:53:24,42.805,6.029,CST-1368DR,4294,4681,11574,01.198,552
2023-05-19T03:56:26,42.805,6.029,CST-1368DR,4294,4678,11565,01.201,552
2023-05-19T03:59:27,42.805,6.029,CST-1368DR,4294,4680,11570,01.200,552
2023-05-19T04:02:29,42.805,6.029,CST-1368DR,4294,4682,11576,01.197,552
2023-05-19T04:05:30,42.805,6.029,CST-1368DR,4294,4686,11584,01.195,551
2023-05-19T04:08:32,42.805,6.029,CST-1368DR,4294,4692,11600,01.189,552
2023-05-19T04:11:34,42.805,6.029,CST-1368DR,4294,4680,11570,01.200,552
2023-05-19T04:14:35,42.805,6.029,CST-1368DR,4294,4695,11608,01.186,552
2023-05-19T04:17:37,42.805,6.029,CST-1368DR,4294,4679,11567,01.201,552
2023-05-19T04:20:38,42.805,6.029,CST-1368DR,4294,4699,11618,01.183,552
2023-05-19T04:23:40,42.805,6.029,CST-1368DR,4294,4682,11575,01.198,552
2023-05-19T04:26:42,42.805,6.029,CST-1368DR,4294,4686,11584,01.195,552
2023-05-19T04:29:43,42.805,6.029,CST-1368DR,4294,4680,11571,01.199,552
2023-05-19T04:32:45,42.805,6.029,CST-1368DR,4294,4679,11567,01.201,552
2023-05-19T04:35:46,42.805,6.029,CST-1368DR,4294,4680,11571,01.199,551
2023-05-19T04:38:48,42.805,6.029,CST-1368DR,4294,4678,11565,01.201,551
2023-05-19T04:41:49,42.805,6.029,CST-1368DR,4294,4685,11583,01.195,552
2023-05-19T04:44:51,42.805,6.029,CST-1368DR,4294,4700,11619,01.183,552
2023-05-19T04:47:53,42.805,6.029,CST-1368DR,4294,4685,11583,01.195,552
2023-05-19T04:50:54,42.805,6.029,CST-1368DR,4294,4683,11577,01.197,552
2023-05-19T04:53:56,42.805,6.029,CST-1368DR,4294,4685,11583,01.195,552
2023-05-19T04:56:57,42.805,6.029,CST-1368DR,4294,4676,11561,01.203,552
2023-05-19T04:59:59,42.805,6.029,CST-1368DR,4294,4676,11561,01.203,552
2023-05-19T05:03:00,42.805,6.029,CST-1368DR,4294,4677,11564,01.202,552
2023-05-19T05:06:02,42.805,6.029,CST-1368DR,4294,4678,11565,01.201,552
2023-05-19T05:09:04,42.805,6.029,CST-1368DR,4294,4687,11587,01.194,552
2023-05-19T05:12:05,42.805,6.029,CST-1368DR,4294,4681,11574,01.198,552
2023-05-19T05:15:07,42.805,6.029,CST-1368DR,4294,4678,11566,01.201,552
2023-05-19T05:18:08,42.805,6.029,CST-1368DR,4294,4694,11604,01.188,552
2023-05-19T05:21:10,42.805,6.029,CST-1368DR,4294,4688,11589,01.193,551
2023-05-19T05:24:12,42.805,6.029,CST-1368DR,4294,4676,11561,01.203,552
2023-05-19T05:27:13,42.805,6.029,CST-1368DR,4294,4679,11567,01.201,552
2023-05-19T05:30:15,42.805,6.029,CST-1368DR,4294,4683,11577,01.197,552
2023-05-19T05:33:16,42.805,6.029,CST-1368DR,4294,4674,11556,01.204,552
2023-05-19T05:36:18,42.805,6.029,CST-1368DR,4294,4679,11569,01.200,552
2023-05-19T05:39:19,42.805,6.029,CST-1368DR,4294,4685,11583,01.195,552
2023-05-19T05:42:21,42.805,6.029,CST-1368DR,4294,4694,11604,01.188,552
2023-05-19T05:45:23,42.805,6.029,CST-1368DR,4294,4694,11604,01.188,551
2023-05-19T05:48:24,42.805,6.029,CST-1368DR,4294,4675,11557,01.204,552
2023-05-19T05:51:26,42.805,6.029,CST-1368DR,4294,4676,11561,01.203,552
2023-05-19T05:54:27,42.805,6.029,CST-1368DR,4294,4698,11616,01.184,552
2023-05-19T05:57:29,42.805,6.029,CST-1368DR,4294,4698,11614,01.184,552
2023-05-19T06:00:30,42.805,6.029,CST-1368DR,4294,4679,11567,01.201,552
2023-05-19T06:03:32,42.805,6.029,CST-1368DR,4294,4677,11562,01.202,552
2023-05-19T06:06:34,42.805,6.029,CST-1368DR,4294,4677,11562,01.202,552
2023-05-19T06:09:35,42.805,6.029,CST-1368DR,4294,4673,11554,01.205,552
2023-05-19T06:12:37,42.805,6.029,CST-1368DR,4294,4676,11561,01.203,552
2023-05-19T06:15:38,42.805,6.029,CST-1368DR,4294,4673,11553,01.205,552
2023-05-19T06:18:40,42.805,6.029,CST-1368DR,4294,4676,11561,01.203,552
2023-05-19T06:21:42,42.805,6.029,CST-1368DR,4294,4680,11570,01.200,552
2023-05-19T06:24:43,42.805,6.029,CST-1368DR,4294,4692,11600,01.189,552
2023-05-19T06:27:45,42.805,6.029,CST-1368DR,4294,4682,11576,01.197,552
2023-05-19T06:30:49,42.805,6.029,CST-1368DR,4294,4683,11579,01.196,552
2023-05-19T06:33:51,42.805,6.029,CST-1368DR,4293,4676,11563,01.202,552
2023-05-19T06:36:52,42.805,6.029,CST-1368DR,4294,4677,11562,01.202,552
2023-05-19T06:39:54,42.805,6.029,CST-1368DR,4294,4682,11575,01.198,552
2023-05-19T06:42:56,42.805,6.029,CST-1368DR,4294,4674,11554,01.205,552
2023-05-19T06:45:57,42.805,6.029,CST-1368DR,4294,4679,11567,01.201,552
2023-05-19T06:48:59,42.805,6.029,CST-1368DR,4294,4680,11571,01.199,552
2023-05-19T06:52:00,42.805,6.029,CST-1368DR,4294,4681,11573,01.198,552
2023-05-19T06:55:02,42.805,6.029,CST-1368DR,4294,4679,11567,01.201,552
2023-05-19T06:58:03,42.805,6.029,CST-1368DR,4293,4682,11578,01.197,552
2023-05-19T07:01:05,42.805,6.029,CST-1368DR,4294,4681,11572,01.199,552
2023-05-19T07:04:07,42.805,6.029,CST-1368DR,4294,4678,11564,01.202,552
2023-05-19T07:07:08,42.805,6.029,CST-1368DR,4294,4675,11558,01.204,552
2023-05-19T07:10:10,42.805,6.029,CST-1368DR,4294,4689,11592,01.192,552
2023-05-19T07:13:11,42.805,6.029,CST-1368DR,4294,4680,11571,01.199,552
2023-05-19T07:16:13,42.805,6.029,CST-1368DR,4294,4695,11607,01.187,551
2023-05-19T07:19:15,42.805,6.029,CST-1368DR,4294,4697,11613,01.185,552
2023-05-19T07:22:16,42.805,6.029,CST-1368DR,4294,4692,11599,01.190,552
2023-05-19T07:25:18,42.805,6.029,CST-1368DR,4294,4685,11583,01.195,552
2023-05-19T07:28:19,42.805,6.029,CST-1368DR,4294,4697,11611,01.185,552
2023-05-19T07:31:21,42.805,6.029,CST-1368DR,4294,4696,11611,01.185,552
2023-05-19T07:34:22,42.805,6.029,CST-1368DR,4294,4697,11612,01.185,552
2023-05-19T07:37:24,42.805,6.029,CST-1368DR,4294,4693,11603,01.188,551
2023-05-19T07:40:26,42.805,6.029,CST-1368DR,4294,4690,11595,01.191,552
2023-05-19T07:43:27,42.805,6.029,CST-1368DR,4294,4689,11592,01.192,552
2023-05-19T07:46:29,42.805,6.029,CST-1368DR,4294,4677,11564,01.202,552
2023-05-19T07:49:30,42.805,6.029,CST-1368DR,4294,4698,11614,01.184,552
2023-05-19T07:52:32,42.805,6.029,CST-1368DR,4294,4695,11607,01.187,552
2023-05-19T07:55:33,42.805,6.029,CST-1368DR,4294,4696,11610,01.186,552
2023-05-19T07:58:35,42.805,6.029,CST-1368DR,4294,4693,11602,01.188,552
2023-05-19T08:01:37,42.805,6.029,CST-1368DR,4294,4695,11607,01.187,552
2023-05-19T08:04:38,42.805,6.029,CST-1368DR,4294,4696,11611,01.185,552
2023-05-19T08:07:40,42.805,6.029,CST-1368DR,4294,4694,11606,01.187,552
2023-05-19T08:10:41,42.805,6.029,CST-1368DR,4294,4694,11606,01.187,552
2023-05-19T08:13:43,42.805,6.029,CST-1368DR,4294,4698,11614,01.184,552
2023-05-19T08:16:44,42.805,6.029,CST-1368DR,4294,4698,11614,01.184,552
2023-05-19T08:19:46,42.805,6.029,CST-1368DR,4294,4698,11615,01.184,552
2023-05-19T08:22:48,42.805,6.029,CST-1368DR,4294,4697,11613,01.185,552
2023-05-19T08:25:49,42.805,6.029,CST-1368DR,4293,4693,11605,01.187,552
2023-05-19T08:28:51,42.805,6.029,CST-1368DR,4294,4692,11600,01.189,552
2023-05-19T08:31:52,42.805,6.029,CST-1368DR,4294,4693,11601,01.189,552
2023-05-19T08:34:54,42.805,6.029,CST-1368DR,4294,4698,11614,01.184,552
2023-05-19T08:37:56,42.805,6.029,CST-1368DR,4294,4692,11600,01.189,552
2023-05-19T08:40:57,42.805,6.029,CST-1368DR,4294,4694,11604,01.188,552
2023-05-19T08:43:59,42.805,6.029,CST-1368DR,4294,4689,11593,01.192,552
2023-05-19T08:47:00,42.805,6.029,CST-1368DR,4293,4691,11601,01.189,552
2023-05-19T08:50:02,42.805,6.029,CST-1368DR,4293,4694,11608,01.186,551
2023-05-19T08:53:03,42.805,6.029,CST-1368DR,4294,4692,11600,01.189,552
2023-05-19T08:56:05,42.805,6.029,CST-1368DR,4293,4695,11610,01.186,552
2023-05-19T08:59:07,42.805,6.029,CST-1368DR,4293,4689,11596,01.191,551
2023-05-19T09:02:08,42.805,6.029,CST-1368DR,4293,4692,11603,01.188,552
2023-05-19T09:05:10,42.805,6.029,CST-1368DR,4294,4693,11602,01.188,552
2023-05-19T09:08:11,42.805,6.029,CST-1368DR,4293,4687,11590,01.193,552
2023-05-19T09:11:13,42.805,6.029,CST-1368DR,4293,4695,11610,01.186,552
2023-05-19T09:14:14,42.805,6.029,CST-1368DR,4293,4693,11604,01.188,552
2023-05-19T09:17:16,42.805,6.029,CST-1368DR,4293,4695,11610,01.186,552
2023-05-19T09:20:18,42.805,6.029,CST-1368DR,4293,4694,11607,01.187,552
2023-05-19T09:23:19,42.805,6.029,CST-1368DR,4293,4693,11605,01.187,552
2023-05-19T09:26:21,42.805,6.029,CST-1368DR,4293,4695,11611,01.185,552
2023-05-19T09:29:22,42.805,6.029,CST-1368DR,4293,4695,11611,01.185,552
2023-05-19T09:32:24,42.805,6.029,CST-1368DR,4293,4693,11605,01.187,552
2023-05-19T09:35:26,42.805,6.029,CST-1368DR,4293,4691,11600,01.189,552
2023-05-19T09:38:27,42.805,6.029,CST-1368DR,4293,4693,11605,01.187,552
2023-05-19T09:41:29,42.805,6.029,CST-1368DR,4293,4693,11605,01.187,552
2023-05-19T09:44:30,42.805,6.029,CST-1368DR,4293,4696,11611,01.185,552
2023-05-19T09:47:32,42.805,6.029,CST-1368DR,4293,4693,11605,01.187,552
2023-05-19T09:50:33,42.805,6.029,CST-1368DR,4293,4695,11610,01.186,552
2023-05-19T09:53:35,42.805,6.029,CST-1368DR,4293,4693,11605,01.187,552
2023-05-19T09:56:37,42.805,6.029,CST-1368DR,4293,4693,11605,01.187,552
2023-05-19T09:59:38,42.805,6.029,CST-1368DR,4294,4694,11606,01.187,552
2023-05-19T10:02:40,42.805,6.029,CST-1368DR,4293,4688,11593,01.192,552
2023-05-19T10:05:41,42.805,6.029,CST-1368DR,4293,4694,11608,01.186,552
2023-05-19T10:08:43,42.805,6.029,CST-1368DR,4293,4693,11604,01.188,552
2023-05-19T10:11:44,42.805,6.029,CST-1368DR,4293,4683,11580,01.196,552
2023-05-19T10:14:46,42.805,6.029,CST-1368DR,4293,4691,11601,01.189,551
2023-05-19T10:17:48,42.805,6.029,CST-1368DR,4293,4693,11605,01.187,552
2023-05-19T10:20:49,42.805,6.029,CST-1368DR,4294,4695,11607,01.187,552
2023-05-19T10:23:51,42.805,6.029,CST-1368DR,4293,4685,11586,01.194,552
2023-05-19T10:26:52,42.805,6.029,CST-1368DR,4294,4696,11609,01.186,552
2023-05-19T10:29:54,42.805,6.029,CST-1368DR,4293,4689,11594,01.191,552
2023-05-19T10:32:56,42.805,6.029,CST-1368DR,4293,4691,11600,01.189,552
2023-05-19T10:35:57,42.805,6.029,CST-1368DR,4293,4691,11601,01.189,552
2023-05-19T10:38:59,42.805,6.029,CST-1368DR,4293,4695,11609,01.186,552
2023-05-19T10:42:00,42.805,6.029,CST-1368DR,4293,4691,11600,01.189,552
2023-05-19T10:45:02,42.805,6.029,CST-1368DR,4293,4691,11600,01.189,552
2023-05-19T10:48:03,42.805,6.029,CST-1368DR,4293,4689,11596,01.191,552
2023-05-19T10:51:05,42.805,6.029,CST-1368DR,4293,4698,11616,01.184,552
2023-05-19T10:54:07,42.805,6.029,CST-1368DR,4293,4683,11580,01.196,552
2023-05-19T10:57:08,42.805,6.029,CST-1368DR,4293,4685,11585,01.194,552
2023-05-19T11:00:10,42.805,6.029,CST-1368DR,4293,4676,11563,01.202,552
2023-05-19T11:03:11,42.805,6.029,CST-1368DR,4293,4679,11571,01.199,552
2023-05-19T11:06:13,42.805,6.029,CST-1368DR,4293,4675,11559,01.203,552
2023-05-19T11:09:14,42.805,6.029,CST-1368DR,4293,4677,11565,01.201,552
2023-05-19T11:12:16,42.805,6.029,CST-1368DR,4293,4674,11558,01.204,552
2023-05-19T11:15:18,42.805,6.029,CST-1368DR,4293,4676,11564,01.202,552
2023-05-19T11:18:19,42.805,6.029,CST-1368DR,4293,4674,11558,01.204,552
2023-05-19T11:21:21,42.805,6.029,CST-1368DR,4293,4674,11559,01.203,552
2023-05-19T11:24:22,42.805,6.029,CST-1368DR,4293,4677,11564,01.202,552
2023-05-19T11:27:24,42.805,6.029,CST-1368DR,4293,4674,11559,01.203,552
2023-05-19T11:30:25,42.805,6.029,CST-1368DR,4293,4675,11561,01.203,552
2023-05-19T11:33:27,42.805,6.029,CST-1368DR,4293,4677,11566,01.201,552
2023-05-19T11:36:29,42.805,6.029,CST-1368DR,4293,4675,11560,01.203,552
2023-05-19T11:39:30,42.805,6.029,CST-1368DR,4293,4674,11559,01.203,552
2023-05-19T11:42:32,42.805,6.029,CST-1368DR,4293,4674,11557,01.204,552
2023-05-19T11:45:33,42.805,6.029,CST-1368DR,4293,4678,11567,01.201,552
2023-05-19T11:48:35,42.805,6.029,CST-1368DR,4293,4673,11555,01.205,552
2023-05-19T11:51:37,42.805,6.029,CST-1368DR,4293,4679,11571,01.199,552
2023-05-19T11:54:38,42.805,6.029,CST-1368DR,4293,4687,11590,01.193,552
2023-05-19T11:57:40,42.805,6.029,CST-1368DR,4293,4689,11595,01.191,552
2023-05-19T12:00:41,42.805,6.029,CST-1368DR,4293,4693,11604,01.188,551
2023-05-19T12:03:43,42.805,6.029,CST-1368DR,4293,4682,11577,01.197,552
2023-05-19T12:06:44,42.805,6.029,CST-1368DR,4293,4688,11593,01.192,552
2023-05-19T12:09:46,42.805,6.029,CST-1368DR,4293,4685,11585,01.194,552
2023-05-19T12:12:48,42.805,6.029,CST-1368DR,4293,4676,11563,01.202,552
2023-05-19T12:15:49,42.805,6.029,CST-1368DR,4293,4677,11566,01.201,552
2023-05-19T12:18:51,42.805,6.029,CST-1368DR,4293,4677,11564,01.202,552
2023-05-19T12:21:52,42.805,6.029,CST-1368DR,4293,4673,11555,01.205,552
2023-05-19T12:24:54,42.805,6.029,CST-1368DR,4293,4678,11567,01.201,552
2023-05-19T12:27:55,42.805,6.029,CST-1368DR,4293,4678,11567,01.201,552
2023-05-19T12:30:57,42.805,6.029,CST-1368DR,4293,4686,11588,01.193,552
2023-05-19T12:33:59,42.805,6.029,CST-1368DR,4293,4686,11588,01.193,552
2023-05-19T12:37:01,42.805,6.029,CST-1368DR,4293,4690,11598,01.190,552
2023-05-19T12:40:02,42.805,6.029,CST-1368DR,4293,4682,11577,01.197,552
2023-05-19T12:43:04,42.805,6.029,CST-1368DR,4293,4679,11570,01.200,552
2023-05-19T12:46:05,42.805,6.029,CST-1368DR,4293,4673,11555,01.205,552
2023-05-19T12:49:07,42.805,6.029,CST-1368DR,4293,4681,11576,01.197,552
2023-05-19T12:52:08,42.805,6.029,CST-1368DR,4293,4677,11564,01.202,552
2023-05-19T12:55:10,42.805,6.029,CST-1368DR,4293,4678,11569,01.200,552
2023-05-19T12:58:12,42.805,6.029,CST-1368DR,4293,4678,11567,01.201,552
2023-05-19T13:01:13,42.805,6.029,CST-1368DR,4293,4679,11569,01.200,552
2023-05-19T13:04:15,42.805,6.029,CST-1368DR,4293,4676,11564,01.202,552
2023-05-19T13:07:16,42.805,6.029,CST-1368DR,4293,4674,11558,01.204,552
2023-05-19T13:10:18,42.805,6.029,CST-1368DR,4293,4680,11574,01.198,552
2023-05-19T13:13:20,42.805,6.029,CST-1368DR,4293,4679,11571,01.199,552
2023-05-19T13:16:21,42.805,6.029,CST-1368DR,4293,4678,11567,01.201,551
2023-05-19T13:19:23,42.805,6.029,CST-1368DR,4293,4678,11568,01.200,552
2023-05-19T13:22:24,42.805,6.029,CST-1368DR,4293,4673,11556,01.204,552
2023-05-19T13:25:26,42.805,6.029,CST-1368DR,4293,4675,11561,01.203,552
2023-05-19T13:28:27,42.805,6.029,CST-1368DR,4293,4674,11558,01.204,552
2023-05-19T13:31:29,42.805,6.029,CST-1368DR,4293,4675,11560,01.203,552
2023-05-19T13:34:31,42.805,6.029,CST-1368DR,4293,4679,11571,01.199,552
2023-05-19T13:37:32,42.805,6.029,CST-1368DR,4293,4669,11545,01.208,552
2023-05-19T13:40:34,42.805,6.029,CST-1368DR,4293,4680,11572,01.199,552
2023-05-19T13:43:35,42.805,6.029,CST-1368DR,4293,4679,11571,01.199,552
2023-05-19T13:46:37,42.805,6.029,CST-1368DR,4293,4687,11590,01.193,552
2023-05-19T13:49:38,42.805,6.029,CST-1368DR,4293,4686,11587,01.194,552
2023-05-19T13:52:40,42.805,6.029,CST-1368DR,4293,4678,11567,01.201,552
2023-05-19T13:55:42,42.805,6.029,CST-1368DR,4293,4693,11606,01.187,552
2023-05-19T13:58:43,42.805,6.029,CST-1368DR,4293,4694,11606,01.187,552
2023-05-19T14:01:45,42.805,6.029,CST-1368DR,4293,4688,11592,01.192,552
2023-05-19T14:04:46,42.805,6.029,CST-1368DR,4293,4694,11608,01.186,552
2023-05-19T14:07:48,42.805,6.029,CST-1368DR,4293,4695,11609,01.186,552
2023-05-19T14:10:50,42.805,6.029,CST-1368DR,4293,4690,11597,01.190,552
2023-05-19T14:13:51,42.805,6.029,CST-1368DR,4293,4690,11598,01.190,552
2023-05-19T14:16:53,42.805,6.029,CST-1368DR,4293,4689,11595,01.191,552
2023-05-19T14:19:54,42.805,6.029,CST-1368DR,4293,4695,11610,01.186,552
2023-05-19T14:22:56,42.805,6.029,CST-1368DR,4293,4693,11606,01.187,552
2023-05-19T14:25:57,42.805,6.029,CST-1368DR,4293,4689,11594,01.191,552
2023-05-19T14:28:59,42.805,6.029,CST-1368DR,4293,4693,11605,01.187,552
2023-05-19T14:32:01,42.805,6.029,CST-1368DR,4293,4694,11607,01.187,552
2023-05-19T14:35:03,42.805,6.029,CST-1368DR,4293,4693,11605,01.187,552
2023-05-19T14:38:04,42.805,6.029,CST-1368DR,4293,4689,11595,01.191,552
2023-05-19T14:41:06,42.805,6.029,CST-1368DR,4293,4689,11595,01.191,552
2023-05-19T14:44:08,42.805,6.029,CST-1368DR,4293,4695,11610,01.186,552
2023-05-19T14:47:09,42.805,6.029,CST-1368DR,4293,4695,11610,01.186,552
2023-05-19T14:50:11,42.805,6.029,CST-1368DR,4293,4689,11594,01.191,552
2023-05-19T14:53:12,42.805,6.029,CST-1368DR,4293,4692,11603,01.188,552
2023-05-19T14:56:14,42.805,6.029,CST-1368DR,4293,4693,11605,01.187,552
2023-05-19T14:59:16,42.805,6.029,CST-1368DR,4293,4693,11605,01.187,552
2023-05-19T15:02:17,42.805,6.029,CST-1368DR,4293,4692,11603,01.188,552
2023-05-19T15:05:19,42.805,6.029,CST-1368DR,4293,4695,11609,01.186,552
2023-05-19T15:08:20,42.805,6.029,CST-1368DR,4293,4693,11604,01.188,552
2023-05-19T15:11:22,42.805,6.029,CST-1368DR,4293,4692,11601,01.189,552
2023-05-19T15:14:23,42.805,6.029,CST-1368DR,4293,4685,11585,01.194,552
2023-05-19T15:17:25,42.805,6.029,CST-1368DR,4293,4692,11601,01.189,552
2023-05-19T15:20:27,42.805,6.029,CST-1368DR,4293,4681,11576,01.197,552
2023-05-19T15:23:28,42.805,6.029,CST-1368DR,4293,4693,11606,01.187,552
2023-05-19T15:26:30,42.805,6.029,CST-1368DR,4293,4682,11577,01.197,552
2023-05-19T15:29:31,42.805,6.029,CST-1368DR,4293,4690,11597,01.190,552
2023-05-19T15:32:33,42.805,6.029,CST-1368DR,4293,4687,11590,01.193,552
2023-05-19T15:35:34,42.805,6.029,CST-1368DR,4293,4690,11597,01.190,552
2023-05-19T15:38:36,42.805,6.029,CST-1368DR,4293,4694,11608,01.186,552
2023-05-19T15:41:38,42.805,6.029,CST-1368DR,4293,4685,11585,01.194,552
2023-05-19T15:44:39,42.805,6.029,CST-1368DR,4293,4684,11584,01.195,552
2023-05-19T15:47:41,42.805,6.029,CST-1368DR,4293,4681,11576,01.197,552
2023-05-19T15:50:42,42.805,6.029,CST-1368DR,4293,4680,11572,01.199,552
2023-05-19T15:53:44,42.805,6.029,CST-1368DR,4293,4688,11593,01.192,552
2023-05-19T15:56:46,42.805,6.029,CST-1368DR,4293,4685,11585,01.194,552
2023-05-19T15:59:47,42.805,6.029,CST-1368DR,4293,4682,11579,01.196,552
2023-05-19T16:02:49,42.805,6.029,CST-1368DR,4293,4670,11548,01.207,552
2023-05-19T16:05:50,42.805,6.029,CST-1368DR,4293,4680,11573,01.198,552
2023-05-19T16:08:52,42.805,6.029,CST-1368DR,4293,4687,11590,01.193,552
2023-05-19T16:11:53,42.805,6.029,CST-1368DR,4293,4688,11593,01.192,552
2023-05-19T16:14:55,42.805,6.029,CST-1368DR,4293,4688,11593,01.192,552
2023-05-19T16:17:57,42.805,6.029,CST-1368DR,4293,4686,11587,01.194,552
2023-05-19T16:20:58,42.805,6.029,CST-1368DR,4293,4690,11597,01.190,552
2023-05-19T16:24:00,42.805,6.029,CST-1368DR,4293,4673,11556,01.204,552
2023-05-19T16:27:01,42.805,6.029,CST-1368DR,4293,4678,11567,01.201,552
2023-05-19T16:30:03,42.805,6.029,CST-1368DR,4293,4689,11595,01.191,552
2023-05-19T16:33:04,42.805,6.029,CST-1368DR,4293,4679,11570,01.200,552
2023-05-19T16:36:06,42.805,6.029,CST-1368DR,4293,4680,11574,01.198,552